Location: Knowlton
(51.2333°N, 1.2667°E)
Time: 04:12:18
(UTC+00:00)

Cosmos 1726 Rocket - Pass Details

Date: 18 April 2021
Orbit: 601 x 630 km, 82.5° (Epoch: 06 May)

Event Time Altitude Azimuth Distance (km) Brightness Sun altitude
Rises 20:04:07 0° 201° (SSW) 2,881 6.9 -10.3°
Reaches altitude 10° 20:06:23 10° 206° (SSW) 1,975 6.1 -10.6°
Maximum altitude 20:10:40 55° 284° (WNW) 745 4.4 -11.2°
Drops below altitude 10° 20:14:58 10° 3° (N) 1,974 6.6 -11.8°
Sets 20:17:14 0° 8° (N) 2,879 7.4 -12.0°
